Location: Battery Park City
(40.7115°N, 74.0163°W)
Time: 18:04:48
(UTC+00:00)

Cosmos 2195 Rocket - Pass Details

Date: 08 December 2019
Orbit: 949 x 993 km, 82.9° (Epoch: 25 January)

Event Time Altitude Azimuth Distance (km) Brightness Sun altitude
Rises 22:54:07 0° 178° (S) 3,633 7.7 -15.7°
Reaches altitude 10° 22:56:36 10° 176° (S) 2,696 7.0 -16.2°
Maximum altitude 23:02:44 70° 94° (E) 1,035 4.4 -17.3°
Drops below altitude 10° 23:08:58 10° 12° (NNE) 2,745 6.6 -18.4°
Sets 23:11:31 0° 10° (N) 3,702 7.3 -18.9°
